Погода в Соломенском

Россия / Ставропольский край     44°13′02″N   44°21′04″E
темп.,
°C
ветер,
м/с
пор.,
м/с
влажн.,
%
обл.,
%
осадки,
мм/ч
давл.,
гПа
погр.,
м
9 мая, вс
вс900:00+11вюв358039 0.0 101187
03:00+10вюв3386100 0.0 101035
06:00+12сз1283100 0.0 101068
09:00+16сз356537 0.0 1009446
12:00+21ссз6653100 0.0 10081384
15:00+14зсз111484100 0.2 1010936
18:00+8зсз131986100 0.9 1015956
21:00+7зсз111891100 6.0 10181138
10 мая, пн
пн1000:00+8зсз81485100 1.2 1020985
03:00+7зсз7148498 1.2 1021763
06:00+7з61478100 0.0 1021795
09:00+12зсз812545 0.0 10201832
12:00+14зсз9124417 0.0 10192307
15:00+14зсз8104197 0.0 10182457
18:00+12зсз585470 0.0 1019891
21:00+9зюз3666100 0.0 1020143
11 мая, вт
вт1100:00+6ююз489112 0.1 1020184
03:00+6юз2287100 0.1 101929
06:00+7ююв2384100 0.0 1019110
09:00+12вюв6859100 0.0 10191127
12:00+15вюв6751100 0.0 10181861
15:00+16всв464883 0.0 10171656
18:00+15всв4759100 0.0 1017166
21:00+11вюв5116389 0.0 1018326
12 мая, ср
ср1200:00+8вюв377599 0.0 1018125
03:00+7вюв35857 0.0 101879
06:00+8вюв26879 0.0 1019186
09:00+15в56620 0.0 1018955
12:00+18вюв56510 0.0 10181455
15:00+20вюв454910 0.0 10161579
18:00+19вюв24620 0.0 1016104
21:00+13вюв35792 0.0 101666
13 мая, чт
чт1300:00+11юв48865 0.0 1016125
03:00+10юв33885 0.0 101645
06:00+12вюв35850 0.0 1017136
09:00+18вюв45624 0.0 1016640
12:00+23вюв45500 0.0 1015927
15:00+24в56445 0.0 10151261
18:00+23вюв34595 0.0 101567
21:00+16в4107311 0.0 1016159